Clermont County, Batavia, OH

6:06 AM EDT on July 28, 2017 (GMT -0400)
Clermont County, Batavia

Weather History for KI69 - June, 2013

Change the Weather History Date:

Friday, June 14, 2013

  Actual Average (KLUK) Record (KLUK)
Temperature  
Mean Temperature 68 °F -  
Max Temperature 78 °F 84 °F 95 °F (1988)
Min Temperature 59 °F 62 °F 45 °F (2014)
Cooling Degree Days 4    
Growing Degree Days 18 (Base 50)    
Moisture  
Dew Point 56 °F    
Average Humidity 63    
Maximum Humidity 88    
Minimum Humidity 42    
Precipitation  
Precipitation 0.00 in - - ()
Sea Level Pressure  
Sea Level Pressure 30.01 in    
Wind  
Wind Speed 4 mph ()    
Max Wind Speed 10 mph    
Max Gust Speed 18 mph    
Visibility 10.0 miles    
Events      
Averages and records for this station are not official NWS values.
T = Trace of Precipitation, MM = Missing Value Source: Averaged Metar Reports

Daily Weather History Graph

Daily Weather History Graph

Search for Another Location

Airport or City:

Trip Planner

Search our weather history database for the weather conditions in past years. The results will help you decide how hot, cold, wet, or windy it might be!

Date:

Astronomy

Jun. 14, 2013 Rise Set
Actual Time 6:10 AM EDT 9:04 PM EDT
Civil Twilight 5:38 AM EDT 9:36 PM EDT
Nautical Twilight 4:57 AM EDT 10:16 PM EDT
Astronomical Twilight 4:11 AM EDT 11:03 PM EDT
Moon 11:42 AM EDT (6/14) 12:11 AM EDT (6/14)
Length of Visible Light 15h 58m
Length of Day
14h 53m
Waxing Crescent, 30% of the Moon is Illuminated
Jun 14
Waxing Crescent
Jun 16
First Quarter
Jun 23
Full
Jun 30
Last Quarter
Jul 8
New

Hourly Weather History & Observations

Time (EDT) Temp. Dew Point Humidity Pressure Visibility Wind Dir Wind Speed Gust Speed Precip Events Conditions
12:15 AM 68.0 °F 53.6 °F 60% 29.94 in 10.0 mi NW 8.1 mph - N/A   Clear
12:35 AM 66.2 °F 53.6 °F 64% 29.94 in 10.0 mi NW 5.8 mph - N/A   Clear
12:54 AM 66.2 °F 53.6 °F 64% 29.95 in 10.0 mi NW 5.8 mph - N/A   Clear
1:15 AM 64.4 °F 53.6 °F 68% 29.95 in 10.0 mi NW 6.9 mph - N/A   Clear
1:35 AM 64.4 °F 53.6 °F 68% 29.95 in 10.0 mi NNW 5.8 mph - N/A   Clear
1:54 AM 64.4 °F 53.6 °F 68% 29.94 in 10.0 mi NW 5.8 mph - N/A   Clear
2:15 AM 62.6 °F 53.6 °F 72% 29.94 in 10.0 mi NW 5.8 mph - N/A   Clear
2:35 AM 62.6 °F 53.6 °F 72% 29.94 in 10.0 mi NNW 6.9 mph - N/A   Clear
2:54 AM 62.6 °F 53.6 °F 72% 29.94 in 10.0 mi NNW 3.5 mph - N/A   Clear
3:15 AM 62.6 °F 53.6 °F 72% 29.94 in 10.0 mi Calm Calm - N/A   Clear
3:35 AM 62.6 °F 53.6 °F 72% 29.94 in 10.0 mi Calm Calm - N/A   Clear
3:54 AM 60.8 °F 53.6 °F 77% 29.94 in 10.0 mi NW 3.5 mph - N/A   Clear
4:15 AM 60.8 °F 53.6 °F 77% 29.94 in 10.0 mi Calm Calm - N/A   Clear
4:35 AM 60.8 °F 53.6 °F 77% 29.94 in 10.0 mi Calm Calm - N/A   Clear
4:55 AM 59.0 °F 53.6 °F 82% 29.94 in 10.0 mi Calm Calm - N/A   Clear
5:15 AM 60.8 °F 53.6 °F 77% 29.95 in 10.0 mi Calm Calm - N/A   Clear
5:35 AM 59.0 °F 53.6 °F 82% 29.95 in 10.0 mi Calm Calm - N/A   Clear
5:55 AM 59.0 °F 53.6 °F 82% 29.96 in 10.0 mi Calm Calm - N/A   Clear
6:15 AM 59.0 °F 53.6 °F 82% 29.97 in 10.0 mi NW 3.5 mph - N/A   Clear
6:34 AM 59.0 °F 53.6 °F 82% 29.98 in 10.0 mi Calm Calm - N/A   Clear
6:55 AM 59.0 °F 55.4 °F 88% 29.98 in 10.0 mi Calm Calm - N/A   Clear
7:15 AM 60.8 °F 55.4 °F 82% 29.99 in 10.0 mi Calm Calm - N/A   Clear
7:34 AM 60.8 °F 55.4 °F 82% 30.00 in 10.0 mi NNW 4.6 mph - N/A   Clear
7:55 AM 62.6 °F 55.4 °F 77% 30.00 in 10.0 mi NNW 4.6 mph - N/A   Clear
8:15 AM 62.6 °F 55.4 °F 77% 30.01 in 10.0 mi NNW 3.5 mph - N/A   Clear
8:35 AM 64.4 °F 55.4 °F 73% 30.02 in 10.0 mi North 4.6 mph - N/A   Clear
8:55 AM 66.2 °F 59.0 °F 78% 30.03 in 10.0 mi NNE 4.6 mph - N/A   Clear
9:15 AM 66.2 °F 59.0 °F 78% 30.04 in 10.0 mi North 4.6 mph - N/A   Clear
9:35 AM 68.0 °F 59.0 °F 73% 30.03 in 10.0 mi NNE 3.5 mph - N/A   Clear
9:55 AM 69.8 °F 57.2 °F 64% 30.04 in 10.0 mi NNE 5.8 mph - N/A   Clear
10:15 AM 69.8 °F 57.2 °F 64% 30.05 in 10.0 mi NE 4.6 mph - N/A   Clear
10:35 AM 71.6 °F 57.2 °F 60% 30.04 in 10.0 mi NNE 6.9 mph - N/A   Clear
10:55 AM 71.6 °F 55.4 °F 57% 30.05 in 10.0 mi NE 5.8 mph - N/A   Clear
11:14 AM 73.4 °F 57.2 °F 57% 30.05 in 10.0 mi North 9.2 mph - N/A   Clear
11:35 AM 73.4 °F 57.2 °F 57% 30.05 in 10.0 mi ENE 4.6 mph - N/A   Clear
11:55 AM 73.4 °F 57.2 °F 57% 30.06 in 10.0 mi North 8.1 mph - N/A   Scattered Clouds
12:14 PM 75.2 °F 57.2 °F 53% 30.06 in 10.0 mi NNE 6.9 mph - N/A   Scattered Clouds
12:35 PM 75.2 °F 57.2 °F 53% 30.06 in 10.0 mi NNW 5.8 mph - N/A   Scattered Clouds
12:55 PM 75.2 °F 57.2 °F 53% 30.06 in 10.0 mi Calm Calm - N/A   Mostly Cloudy
1:14 PM 77.0 °F 55.4 °F 47% 30.06 in 10.0 mi NNE 10.4 mph - N/A   Mostly Cloudy
1:35 PM 77.0 °F 57.2 °F 50% 30.05 in 10.0 mi NNW 9.2 mph - N/A   Mostly Cloudy
1:55 PM 77.0 °F 55.4 °F 47% 30.05 in 10.0 mi North 8.1 mph 18.4 mph N/A   Mostly Cloudy
2:14 PM 77.0 °F 55.4 °F 47% 30.04 in 10.0 mi NNE 6.9 mph 17.3 mph N/A   Scattered Clouds
2:35 PM 78.8 °F 55.4 °F 44% 30.04 in 10.0 mi North 10.4 mph 17.3 mph N/A   Scattered Clouds
2:55 PM 77.0 °F 55.4 °F 47% 30.03 in 10.0 mi NNE 8.1 mph - N/A   Mostly Cloudy
3:14 PM 78.8 °F 55.4 °F 44% 30.03 in 10.0 mi NNE 8.1 mph - N/A   Mostly Cloudy
3:35 PM 78.8 °F 55.4 °F 44% 30.03 in 10.0 mi NNE 8.1 mph - N/A   Scattered Clouds
3:55 PM 78.8 °F 55.4 °F 44% 30.03 in 10.0 mi NE 3.5 mph - N/A   Mostly Cloudy
4:14 PM 78.8 °F 55.4 °F 44% 30.04 in 10.0 mi NE 4.6 mph - N/A   Scattered Clouds
4:35 PM 78.8 °F 53.6 °F 42% 30.04 in 10.0 mi NW 6.9 mph - N/A   Clear
4:55 PM 78.8 °F 55.4 °F 44% 30.03 in 10.0 mi NE 6.9 mph - N/A   Scattered Clouds
5:14 PM 78.8 °F 55.4 °F 44% 30.03 in 10.0 mi North 6.9 mph - N/A   Scattered Clouds
5:35 PM 77.0 °F 53.6 °F 44% 30.03 in 10.0 mi North 3.5 mph - N/A   Scattered Clouds
5:55 PM 77.0 °F 55.4 °F 47% 30.03 in 10.0 mi NNE 6.9 mph - N/A   Scattered Clouds
6:14 PM 78.8 °F 55.4 °F 44% 30.03 in 10.0 mi NE 6.9 mph - N/A   Clear
6:35 PM 77.0 °F 55.4 °F 47% 30.03 in 10.0 mi NNE 3.5 mph - N/A   Scattered Clouds
6:55 PM 77.0 °F 55.4 °F 47% 30.03 in 10.0 mi NE 8.1 mph - N/A   Scattered Clouds
7:14 PM 77.0 °F 57.2 °F 50% 30.03 in 10.0 mi NE 3.5 mph - N/A   Clear
7:35 PM 77.0 °F 57.2 °F 50% 30.03 in 10.0 mi NE 5.8 mph - N/A   Scattered Clouds
7:55 PM 75.2 °F 59.0 °F 57% 30.03 in 10.0 mi Calm Calm - N/A   Scattered Clouds
8:14 PM 75.2 °F 59.0 °F 57% 30.03 in 10.0 mi NE 3.5 mph - N/A   Clear
8:35 PM 73.4 °F 59.0 °F 61% 30.03 in 10.0 mi Calm Calm - N/A   Clear
8:55 PM 71.6 °F 59.0 °F 64% 30.04 in 10.0 mi Calm Calm - N/A   Clear
9:14 PM 71.6 °F 59.0 °F 64% 30.04 in 10.0 mi Calm Calm - N/A   Clear
9:35 PM 69.8 °F 59.0 °F 68% 30.04 in 10.0 mi Calm Calm - N/A   Clear
9:55 PM 69.8 °F 59.0 °F 68% 30.04 in 10.0 mi Calm Calm - N/A   Clear
10:14 PM 71.6 °F 59.0 °F 64% 30.05 in 10.0 mi Calm Calm - N/A   Clear
10:35 PM 69.8 °F 59.0 °F 68% 30.07 in 10.0 mi Calm Calm - N/A   Clear
10:55 PM 68.0 °F 59.0 °F 73% 30.07 in 10.0 mi Calm Calm - N/A   Clear
11:14 PM 66.2 °F 59.0 °F 78% 30.07 in 10.0 mi Calm Calm - N/A   Clear
11:35 PM 64.4 °F 59.0 °F 83% 30.07 in 10.0 mi Calm Calm - N/A   Clear
11:55 PM 66.2 °F 59.0 °F 78% 30.07 in 10.0 mi Calm Calm - N/A   Clear